Погода в Великом Бычкове

Украина / Закарпатская область     47°58′18″N   24°00′02″E
В апреле 2022 года жителям России запретили посещать сайт meteo.paraplan.net по решению Генеральной прокуратуры. Аудитория сайта уменьшилась в 10 раз. Владельцы сайта не видят смысла в поддержке погодного сервера в таких условиях. Сайт будет закрыт в октябре.
темп.,
°C
ветер,
м/с
пор.,
м/с
влажн.,
%
обл.,
%
осадки,
мм/ч
давл.,
гПа
погр.,
м
29 сентября, чт
чт2900:00+8в2177100 0.0 100717
03:00+8в2176100 0.0 100614
06:00+8в228238 0.0 100516
09:00+11в128019 0.0 100593
12:00+16ююв2570100 0.2 1005525
15:00+16ююз2474100 0.8 1005682
18:00+14ююв238899 1.6 100659
21:00+11вюв119364 2.1 100813
30 сентября, пт
пт3000:00+11юв119426 0.3 101015
03:00+10вюв119310 0.4 101111
06:00+9в2193100 0.0 101114
09:00+12вюв1289100 0.0 101267
12:00+17ююв257398 0.1 1013458
15:00+19юз146966 1.3 1013733
18:00+16ююз1183100 0.9 101422
21:00+13юв229126 2.4 101615
1 октября, сб
сб100:00+12юв229270 0.0 101720
03:00+12юв119395 0.4 101824
06:00+11вюв1194100 0.1 101814
09:00+13юв1290100 0.1 101880
12:00+18ю3673100 0.3 1016565
15:00+21ююз4954100 0.6 10151508
18:00+17ююз237699 0.8 101447
21:00+13юв2290100 1.4 101316
2 октября, вс
вс200:00+13вюв1191100 0.0 101112
03:00+13зсз1294100 0.9 101279
06:00+12юз1297100 2.3 101162
09:00+12ссз1195100 3.8 101248
12:00+11сз2594100 3.1 1014303
15:00+13зсз247354 3.2 1015739
18:00+12зсз47768 0.3 1016296
21:00+8сз1192100 0.3 101813
3 октября, пн
пн300:00+7ссз11945 0.0 101811
03:00+8с0090100 0.0 101825
06:00+7юз129593 0.1 1017102
09:00+8юз149494 0.8 1016327
12:00+10з498498 1.2 10151246
15:00+10зсз4881100 2.3 10141273
18:00+8зюз139095 0.8 1014158
21:00+6ю119115 1.4 101512